Simultaneous Nadir Overpasses (SNOs) Predictions

Prediction of SNOs between LANDSAT-8 and NOAA-19 Satellite Orbit:

Table of predicted SNOs for the next 14.0 days since TLE Epoch: 5/6/2014
Index Date (LANDSAT-8) Time (LANDSAT-8) Lat,Lon (LANDSAT-8) SZA (LANDSAT-8 ) Date (NOAA-19) Time (NOAA-19) Lat,Lon (NOAA-19) SZA (NOAA-19 ) Distance(km) Time Diff (sec)
1 05/08/2014 18:17:16 -71.92, 84.60 125.39 05/08/2014 18:16:53 -71.89, 84.61 125.42 3.41 23
2 05/08/2014 19:06:44 71.77,-108.01 54.45 05/08/2014 19:07:56 71.78,-107.95 54.46 2.20 72
3 05/10/2014 23:01:31 -71.93, 13.55 125.96 05/10/2014 23:00:47 -71.94, 13.56 125.95 1.21 44
4 05/10/2014 23:50:58 71.84,-178.97 53.94 05/10/2014 23:51:50 71.81,-178.95 53.91 3.14 52
5 05/13/2014 03:45:46 -71.96, -57.49 126.49 05/13/2014 03:44:40 -71.96, -57.41 126.49 2.71 66
6 05/13/2014 04:35:13 71.86, 109.99 53.40 05/13/2014 04:35:44 71.85, 110.02 53.39 1.59 31
7 05/15/2014 08:29:53 -72.42,-127.74 126.56 05/15/2014 08:28:43 -72.48,-129.41 126.49 56.23 70
8 05/15/2014 09:19:28 71.89, 38.97 52.91 05/15/2014 09:19:38 71.90, 38.98 52.92 0.88 10
9 05/17/2014 14:03:43 71.94, -32.03 52.44 05/17/2014 14:03:31 71.91, -31.99 52.42 3.24 12
10 05/17/2014 14:53:13 -71.82, 135.41 127.68 05/17/2014 14:54:26 -71.82, 135.45 127.68 1.49 73
11 05/19/2014 18:47:58 71.99,-103.01 52.02 05/19/2014 18:47:25 71.98,-103.07 52.02 2.22 33
12 05/19/2014 19:37:28 -71.88, 64.42 128.10 05/19/2014 19:38:19 -71.86, 64.43 128.12 2.11 51




NCC Satellite Simultaneous Nadir Overpasses (SNOs) Prediction Service
